Location: Silverdale
(47.6506°N, 122.6941°W)
Time: 00:41:57
(UTC+00:00)

A-11 Canister half - Pass Details

Date: 07 October 2022
Orbit: 1524 x 1685 km, 47.3° (Epoch: 05 December)

Event Time Altitude Azimuth Distance (km) Brightness Sun altitude
Rises 02:10:43 0° 278° (W) 4,677 13.8 -6.0°
Reaches altitude 10° 02:13:44 10° 278° (W) 3,701 12.7 -6.5°
Maximum altitude 02:23:05 84° 192° (SSW) 1,566 9.1 -8.1°
Enters shadow 02:32:42 10° 106° (ESE) 3,790 10.4 -9.7°
